Regional Weather Roundup
Issued by NWS

Home | Current Version | Previous Version | Text Only | Print | Product List | Glossary On
Versions: 1 2 3 4 5 6 7 8 9 10 11 12 13 14 15 16 17 18 19 20 21 22 23 24 25 26 27 28 29 30 31 32 33 34 35 36 37 38 39 40 41 42 43 44 45 46 47 48 49 50
000
ASUS43 KIND 221309
RWRIN

WEATHER ROUNDUP FOR INDIANA
NATIONAL WEATHER SERVICE INDIANAPOLIS IN
900 AM EDT SUN APR 22 2018

NOTE: "FAIR" INDICATES FEW OR NO CLOUDS BELOW 12,000 FEET WITH NO
SIGNIFICANT WEATHER AND/OR OBSTRUCTIONS TO VISIBILITY.

* - STATION DOES NOT REPORT WEATHER SUCH AS PRECIPITATION OR FOG.

+ - STATION NOT QUALITY CONTROLLED BY THE NATIONAL WEATHER SERVICE.
    USE DATA WITH CAUTION...ESPECIALLY DEWPOINT AND RELATIVE
    HUMIDITY OBSERVATIONS.

INZ001>003-010>013-019-020-221400-
NORTHWEST INDIANA

CITY           SKY/WX    TMP DP  RH WIND       PRES   REMARKS
GARY /AIRPORT/ CLOUDY    50  32  50 E3        30.37R
KNOX *+        FAIR      46  23  39 E3        30.36R
LA PORTE +     FAIR      46  27  47 E8        30.37S
MICHIGAN CITY+ FAIR      46  23  39 CALM      30.37S
MONTICELLO +   FAIR      46  20  36 E8        30.32S
RENSSELAER +   FAIR      45  21  39 E9        30.34S
VALPARAISO     PTSUNNY   49  25  39 E8        30.37R

$$

LMZ046-743>745-221400-
SOUTHERN LAKE MICHIGAN

STATION/POSITION TIME  TEMP    WIND        PRES    WAVE
                       AIR SEA DIR/SP/G            HT
                 (UTC) (F)     (DEG/KT/KT) (MB)    (FT)
BURNS HARBOR     1240   45      60/  5/  6 1028.8R
MICHIGAN CITY    1240   47     100/  5/  7   N/A

$$

INZ004-005-014>016-021>024-221400-
NORTH CENTRAL INDIANA

CITY           SKY/WX    TMP DP  RH WIND       PRES   REMARKS
GOSHEN         FAIR      45  24  43 E10       30.37S
LOGANSPORT +   FAIR      45  23  42 NE9       30.34F
PERU/GRISSOM   CLOUDY    46  21  36 E9        30.33S
ROCHESTER +    FAIR      46  21  36 E7        30.36S
SOUTH BEND     FAIR      47  19  33 E8        30.38R
WARSAW +       CLOUDY    45  21  39 E7        30.37R

$$

INZ006>009-017-018-025>027-221400-
NORTHEAST INDIANA

CITY           SKY/WX    TMP DP  RH WIND       PRES   REMARKS
AUBURN +       FAIR      43  27  52 NE10      30.38F
FORT WAYNE     PTSUNNY   44  24  45 E10       30.38R
HUNTINGTON +   FAIR      42  23  46 E6        30.37R

$$

INZ028-029-035-036-043>045-051>053-221400-
WEST CENTRAL INDIANA

CITY           SKY/WX    TMP DP  RH WIND       PRES   REMARKS
CRAWFORDSVL +  FAIR      46  27  48 E10       30.30S
GREENCASTLE +  FAIR      46  28  49 E8        30.29F
LAFAYETTE      FAIR      46  26  45 E9        30.31S
TERRE HAUTE    CLOUDY    49  32  52 E8        30.27S

$$

INZ030>032-037>040-046>048-054>057-064-065-221400-
CENTRAL INDIANA

CITY           SKY/WX    TMP DP  RH WIND       PRES   REMARKS
COLUMBUS       PTSUNNY   48 N/A N/A NE5       30.30R
FISHERS *+     FAIR      46  30  53 E7        30.32
FRANKFORT +    FAIR      50  24  37 E13       30.32S
GREENWOOD *+   FAIR      47  28  47 E8        30.30S
INDIANAPOLIS   CLOUDY    49  26  41 E12       30.30S
-EAGLE CREEK   FAIR      49  26  41 E7        30.30S
KOKOMO +       CLOUDY    43  27  53 NE12      30.33F
MARION +       PTSUNNY   42  25  50 CALM      30.35S
MT COMFORT *+  CLOUDY    46  34  61 NE7       30.31F
SHELBYVILLE    FAIR      50  28  42 NE9       30.29R
ZIONSVILLE +   FAIR      46  25  44 E8        30.31S

$$

INZ033-034-041-042-049-050-058-059-221400-
EAST CENTRAL INDIANA

CITY           SKY/WX    TMP DP  RH WIND       PRES   REMARKS
MUNCIE         CLOUDY    46  26  45 NE8       30.33S
RICHMOND +     PTSUNNY   45  30  57 NE12      30.32S

$$

INZ060-061-067>069-081>083-085>088-221400-
SOUTHWEST INDIANA

CITY           SKY/WX    TMP DP  RH WIND       PRES   REMARKS
EVANSVILLE     FAIR      53  36  52 NE8       30.20F
HUNTINGBURG +  FAIR      54  32  43 E3        30.22S
WASHINGTON +   FAIR      52  29  41 NE7       30.23F

$$

INZ062-063-066-070>080-084-089>092-221400-
SOUTH CENTRAL AND SOUTHEAST INDIANA

CITY           SKY/WX    TMP DP  RH WIND       PRES   REMARKS
BATESVILLE +   SUNNY     46  28  49 MISG      30.30R
BEDFORD +      FAIR      52  25  35 E7        30.26R
BLOOMINGTON    FAIR      51  28  41 E8        30.26F
FRENCH LICK *+ FAIR      52  21  30 NE9       30.22F
MADISON *+     FAIR      52  25  35 E8        30.29S
NORTH VERNON + FAIR      50  28  43 NE5       30.29R
SEYMOUR +      FAIR      52  32  46 NE6       30.28S

$$





USA.gov is the U.S. government's official web portal to all federal, state and local government web resources and services.